STARLINK-35234, 65601

Orbit data source: Space-Track

STARLINK-35234, 65601 is a payload satellite owned by SpaceX/Seattle (US) in SSO that was launched on Sat, 13 Sep 2025 UTC via an FALCON 9 launch vehicle from the Air Force Eastern Test Range (AFETR). Payload-class satellites include a variety of spacecraft equipped with specific instruments for various scientific and technological missions. These include communications satellites like Starlink; space stations such as the ISS; scientific satellites like the Hubble; Earth observation satellites from companies like Planet Labs, Umbra, and HawkEye 360; GPS; miniature CubeSats for education and research; and military/defense satellites.

Loading next visibility...
Identifier
65601, 2025-207K
Orbit
SSO
Country
Flag of USUS
Related business
Manufacturer
SpaceX/Seattle
Mission
Operational Commercial Communications
Bus & Motor
STARLINK V2MO, Unknown motor
Mass
575 kg wet, ~530 kg dry
Launch date (UTC)
2025-09-13 (9 months ago)
Launch vehicle
FALCON 9
Launch site
Air Force Eastern Test Range (AFETR)
Object type
Payload
Rocket body
Debris
Shape & HBR
Box + 2 Pan, 17.7 m
Radar Cross Section
36.964 m², Large (>1 m²)

Expand to show TLE details & history
Last TLE update: 5 hours ago

TLE from 5 hours ago
0 STARLINK-35234
1 65601U 25207K   26166.94535498  .00004917  00000-0  34443-3 0  9994
2 65601  97.3542 234.5335 0000195 159.3883 200.7352 15.05662590 43046
Epoch: 2026-06-15T22:41Z
TLE epoch observation values (Epoch: 2026-06-15T22:41:18.670Z)
Latitude
-0.00005°
Longitude
-10.01875°
Altitude
552.671 km
Speed
7.585 km/s
True Right ascension
15h 38m 08s
True Declination
0° 00' 00"
Sunlit
Object was in full shadow at epoch
Visualization orbit readout
Latitude
Unknown
Longitude
Unknown
Altitude
Unknown
Speed
Unknown
Apparent Right ascension
Unknown
Apparent Declination
Unknown
Sunlit
N/A
Visualization observer readout
Local Sidereal Time
14:40:50
Azimuth
Unknown
Elevation
Unknown
Doppler factor
Unknown
Orbital elements
Apogee altitude
546.59 km
Perigee altitude
546.32 km
Semi-major axis
6,924.592 km
Eccentricity
0.00002
Inclination
97.3542°
RAAN
234.5335°
Arg. of periapsis
159.3883°
True anomaly
200.73441°
Mean anomaly
200.7352°
Eccentric anomaly
200.7348°
Mean motion
3.76662 °/min
Orbital period
95.58 mins
BSTAR
0.00034443
Loading maneuver chart data...
Computing Atmospheric mass density...
Loading historical data...
Loading historical data...
Loading historical data...
Loading historical data...
Loading historical data...
Loading historical data...
Loading historical data...

Documentation

Showing up to 5 results
|